Regional Weather Roundup
Issued by NWS State College, PA

Home | Current Version | Previous Version | Graphics & Text | Print | Product List | Glossary On
Versions: 1 2 3 4 5 6 7 8 9 10 11 12 13 14 15 16 17 18 19 20 21 22 23 24 25 26 27 28 29 30 31 32 33 34 35 36 37 38 39 40 41 42 43 44 45 46 47 48 49 50
000
ASUS41 KCTP 300903
RWRCTP

REGIONAL WEATHER ROUNDUP
NATIONAL WEATHER SERVICE STATE COLLEGE PA
500 AM EDT SAT MAY 30 2015

Note: "fair" indicates few or no clouds below 12,000 feet with no
significant weather and/or obstructions to visibility.

* = STATION THAT DOES NOT REPORT PRECIPITATION /E.G. RAIN...SNOW...ETC/
    THUNDER OR FOG.

PAZ002>004-007>009-013>016-020>023-029>032-301000-
WESTERN PENNSYLVANIA

CITY           SKY/WX    TMP DP  RH WIND       PRES   REMARKS
ERIE           MOCLDY    73  63  70 S15G21    30.02S
MEADVILLE      MOCLDY    67  63  87 VRB5      30.08S
FRANKLIN*      MOCLDY    64  61  88 S6        30.11S
NEW CASTLE     FAIR      69  65  87 CALM      30.09S
BEAVER COUNTY  NOT AVBL
BUTLER*        PTCLDY    66  63  88 S5        30.12S
PITTSBURGH INT CLOUDY    68  63  84 S5        30.10S
PITTSBURGH     CLEAR     68  60  75 S7        30.10S
INDIANA*       MOCLDY    68  64  88 CALM      30.16S
LATROBE        CLEAR     72  64  78 S5        30.13S
WASHINGTON CO* CLEAR     64  61  88 CALM      30.13S
$$

PAZ004>006-010>012-017>019-024>028-033>037-041-042-045-046-049>053-301000-
CENTRAL PENNSYLVANIA

CITY           SKY/WX    TMP DP  RH WIND       PRES   REMARKS
BRADFORD       CLEAR     64  62  93 S3        30.14S
DUBOIS         PTCLDY    67  62  84 S3        30.13S
CLEARFIELD     PTCLDY    63  62  97 CALM      30.14S FOG
JOHNSTOWN      CLOUDY    67  61  81 SW7       30.17R
ALTOONA        PTCLDY    65  62  90 CALM      30.16S
STATE COLLEGE  PTCLDY    68  65  91 SW6       30.14S
WILLIAMSPORT   MOCLDY    72  65  78 VRB3      30.11S
SELINSGROVE    CLOUDY    72  66  81 S5        30.15S
FT INDIANTOWN  MOCLDY    67  67  97 CALM      30.17S
CAPITAL CITY   CLEAR     69  62  78 E5        30.16S
HARRISBURG     PTCLDY    71  64  78 S9        30.15S
YORK           MOCLDY    68  63  84 CALM      30.17S
$$

PAZ038>040-043-044-047-048-054-055-060>062-067>071-301000-
EASTERN PENNSYLVANIA

CITY           SKY/WX    TMP DP  RH WIND       PRES   REMARKS
SCRANTON       MOCLDY    69  64  84 CALM      30.16S
MOUNT POCONO   CLOUDY    66  63  90 SW9       30.21S
ALLENTOWN      PTCLDY    69  63  81 S7        30.18R
QUAKERTOWN*    SUNNY     64  64 100 SW3       30.20S
READING        PTCLDY    68  64  87 CALM      30.17S
LANCASTER      MOCLDY    67  65  93 CALM      30.18R
COATESVILLE    CLOUDY    64  64 100 CALM      30.20S FOG
POTTSTOWN      PTCLDY    65  64  97 CALM      30.21R
BLUE BELL      CLEAR     68  64  88 CALM      30.19S
DOYLESTOWN     CLEAR     65  32  29 S5        30.19S
WILLOW GROVE   NOT AVBL
NORTH PHILA    CLEAR     68  62  81 S3        30.21S
PHILADELPHIA   PTCLDY    69  65  86 S5        30.20S
$$



USA.gov is the U.S. government's official web portal to all federal, state and local government web resources and services.